This is the latest recevied weather packets stored in our database for station/object KD8OZS. If no packets are shown the sender has not sent any weather packets the latest 10 day(s).
| Time | Temp. | Humidity | Pressure | Rain* | Wind** | Luminosity | Snow |
|---|---|---|---|---|---|---|---|
| 1777560461 | 7.22° C | 83% | 1007.2 hPa | 0 mm | - | 95 W/m² | - |
| 1777560159 | 7.78° C | 83% | 1007.1 hPa | 0 mm | - | 100 W/m² | - |
| 1777559855 | 7.78° C | 82% | 1007.1 hPa | 0 mm | - | 168 W/m² | - |
| 1777559551 | 7.78° C | 83% | 1007.1 hPa | 0 mm | - | 92 W/m² | - |
| 1777559249 | 8.33° C | 82% | 1006.8 hPa | 0 mm | - | 107 W/m² | - |
| 1777558944 | 7.78° C | 84% | 1006.8 hPa | 0 mm | - | 181 W/m² | - |
| 1777558640 | 7.22° C | 84% | 1006.8 hPa | 0 mm | - | 223 W/m² | - |
| 1777558335 | 7.78° C | 86% | 1006.9 hPa | 0 mm | - | 115 W/m² | - |
| 1777558033 | 7.22° C | 85% | 1006.6 hPa | 0 mm | - | 93 W/m² | - |
| 1777557729 | 7.78° C | 84% | 1006.7 hPa | 0 mm | - | 112 W/m² | - |
| 1777557426 | 7.78° C | 84% | 1006.7 hPa | 0 mm | - | 108 W/m² | - |
| 1777557122 | 7.22° C | 84% | 1006.6 hPa | 0 mm | - | 274 W/m² | - |
| 1777556817 | 7.22° C | 85% | 1006.4 hPa | 0 mm | - | 247 W/m² | - |
| 1777556514 | 7.22° C | 86% | 1006.6 hPa | 0 mm | - | 137 W/m² | - |
| 1777556213 | 6.67° C | 86% | 1006.5 hPa | 0 mm | - | 138 W/m² | - |
| 1777555909 | 6.67° C | 86% | 1006.3 hPa | 0 mm | - | 129 W/m² | - |
| 1777555605 | 6.67° C | 87% | 1006.4 hPa | 0 mm | - | 104 W/m² | - |
| 1777555302 | 6.11° C | 87% | 1006.5 hPa | 0 mm | - | 88 W/m² | - |
| 1777554999 | 6.11° C | 87% | 1006.3 hPa | 0 mm | - | 58 W/m² | - |
| 1777554696 | 6.11° C | 87% | 1006.3 hPa | 0 mm | - | 68 W/m² | - |
| 1777554393 | 6.67° C | 87% | 1006.3 hPa | 0 mm | - | 56 W/m² | - |
| 1777554089 | 6.67° C | 88% | 1006.1 hPa | 0 mm | - | 69 W/m² | - |
| 1777553786 | 6.67° C | 88% | 1005.9 hPa | 0 mm | - | 124 W/m² | - |
| 1777553483 | 6.11° C | 88% | 1005.8 hPa | 0 mm | - | 126 W/m² | - |
| 1777553179 | 6.11° C | 88% | 1005.9 hPa | 0 mm | - | 80 W/m² | - |
* Rain latest hour (hover to see other rain measurements)
** Current wind speed in m/s (hover to see current wind gust speed)